| time (UTC) | temp F | wind direction | speed MPH | gust MPH | rain 1hr in | rain 24hr in | rain mn in | humidity % | barometer mb |
| 20260901131749 | 83 | 175 | 0.0 | 0.0 | 0.00 | 0.00 | 0.00 | 89 | 1010.3 |
| 20260901131248 | 82 | 207 | 0.0 | 0.0 | 0.00 | 0.00 | 0.00 | 91 | 1010.4 |
| 20260901130743 | 81 | 216 | 0.0 | 0.0 | 0.00 | 0.00 | 0.00 | 93 | 1010.2 |
| 20260901130243 | 81 | 218 | 0.0 | 0.0 | 0.00 | 0.00 | 0.00 | 94 | 1010.1 |
| 20260901125741 | 80 | 220 | 0.0 | 0.0 | 0.00 | 0.00 | 0.00 | 96 | 1010.2 |
| 20260901125235 | 80 | 221 | 0.0 | 0.0 | 0.00 | 0.00 | 0.00 | 97 | 1010.3 |
| 20260901124730 | 79 | 222 | 0.0 | 0.0 | 0.00 | 0.00 | 0.00 | 97 | 1010.2 |
| 20260901124225 | 79 | 222 | 0.0 | 0.0 | 0.00 | 0.00 | 0.00 | 97 | 1010.0 |
| 20260901123724 | 79 | 223 | 0.0 | 0.0 | 0.00 | 0.00 | 0.00 | 97 | 1010.0 |
| 20260901123220 | 79 | 224 | 0.0 | 0.0 | 0.00 | 0.00 | 0.00 | 97 | 1009.9 |
| 20260901122718 | 79 | 223 | 0.0 | 0.0 | 0.00 | 0.00 | 0.00 | 97 | 1009.9 |
| 20260901122213 | 79 | 223 | 0.0 | 0.0 | 0.00 | 0.00 | 0.00 | 96 | 1009.9 |
| 20260901121707 | 79 | 224 | 0.0 | 0.0 | 0.00 | 0.00 | 0.00 | 96 | 1009.7 |
| 20260901121203 | 79 | 224 | 0.0 | 0.0 | 0.00 | 0.00 | 0.00 | 96 | 1009.8 |
| 20260901120702 | 79 | 224 | 0.0 | 0.0 | 0.00 | 0.00 | 0.00 | 96 | 1009.6 |
| 20260901120157 | 80 | 224 | 0.0 | 0.0 | 0.00 | 0.00 | 0.00 | 96 | 1009.8 |
| 20260901115653 | 80 | 225 | 0.0 | 0.0 | 0.00 | 0.00 | 0.00 | 96 | 1009.6 |
| 20260901115149 | 80 | 224 | 0.0 | 0.0 | 0.00 | 0.00 | 0.00 | 96 | 1009.5 |
| 20260901114645 | 80 | 223 | 0.0 | 0.0 | 0.00 | 0.00 | 0.00 | 96 | 1009.7 |
| 20260901114145 | 80 | 222 | 0.0 | 0.0 | 0.00 | 0.00 | 0.00 | 96 | 1009.6 |
| 20260901113643 | 80 | 217 | 0.0 | 0.0 | 0.00 | 0.00 | 0.00 | 96 | 1009.5 |
| 20260901113138 | 80 | 218 | 0.0 | 0.0 | 0.00 | 0.00 | 0.00 | 96 | 1009.5 |
| 20260901112633 | 80 | 218 | 0.0 | 0.0 | 0.00 | 0.00 | 0.00 | 96 | 1009.5 |
| 20260901112127 | 80 | 222 | 0.0 | 0.0 | 0.00 | 0.00 | 0.00 | 96 | 1009.6 |
| 20260901111626 | 80 | 222 | 0.0 | 0.0 | 0.00 | 0.00 | 0.00 | 96 | 1009.7 |
| 20260901111126 | 80 | 219 | 0.0 | 0.0 | 0.00 | 0.00 | 0.00 | 96 | 1009.6 |
| 20260901110621 | 80 | 227 | 0.0 | 0.0 | 0.00 | 0.00 | 0.00 | 96 | 1009.5 |
| 20260901110116 | 80 | 221 | 0.0 | 0.0 | 0.00 | 0.00 | 0.00 | 96 | 1009.6 |
| 20260901105613 | 80 | 222 | 0.0 | 0.0 | 0.00 | 0.00 | 0.00 | 96 | 1009.6 |
| 20260901105106 | 80 | 222 | 0.0 | 0.0 | 0.00 | 0.00 | 0.00 | 96 | 1009.8 |
| 20260901104603 | 80 | 222 | 0.0 | 0.0 | 0.00 | 0.00 | 0.00 | 96 | 1009.5 |
| 20260901104057 | 81 | 218 | 0.0 | 0.0 | 0.00 | 0.00 | 0.00 | 96 | 1009.3 |
| 20260901103556 | 81 | 208 | 0.0 | 0.0 | 0.00 | 0.00 | 0.00 | 96 | 1009.3 |
| 20260901103052 | 81 | 216 | 0.0 | 0.0 | 0.00 | 0.00 | 0.00 | 96 | 1009.3 |
| 20260901102547 | 81 | 224 | 0.0 | 0.0 | 0.00 | 0.00 | 0.00 | 96 | 1009.2 |
| 20260901102042 | 81 | 202 | 0.0 | 0.0 | 0.00 | 0.00 | 0.00 | 96 | 1009.3 |
| 20260901101538 | 81 | 222 | 0.0 | 0.0 | 0.00 | 0.00 | 0.00 | 96 | 1009.4 |
| 20260901101036 | 81 | 221 | 0.0 | 0.0 | 0.00 | 0.00 | 0.00 | 96 | 1009.4 |
| 20260901100531 | 81 | 217 | 0.0 | 0.0 | 0.00 | 0.00 | 0.00 | 96 | 1009.5 |
| 20260901100031 | 81 | 217 | 0.0 | 0.0 | 0.00 | 0.00 | 0.00 | 96 | 1009.4 |
| 20260901095529 | 81 | 218 | 0.0 | 0.0 | 0.00 | 0.00 | 0.00 | 95 | 1009.4 |
| 20260901095027 | 81 | 222 | 0.0 | 0.0 | 0.00 | 0.00 | 0.00 | 95 | 1009.1 |
| 20260901094522 | 81 | 226 | 0.0 | 0.0 | 0.00 | 0.00 | 0.00 | 95 | 1009.2 |
| 20260901094021 | 81 | 223 | 0.0 | 0.0 | 0.00 | 0.00 | 0.00 | 95 | 1009.1 |
| 20260901093516 | 82 | 217 | 0.0 | 0.0 | 0.00 | 0.00 | 0.00 | 95 | 1009.2 |
| 20260901093011 | 82 | 218 | 0.0 | 0.0 | 0.00 | 0.00 | 0.00 | 95 | 1009.3 |
| 20260901092508 | 82 | 215 | 0.0 | 0.0 | 0.00 | 0.00 | 0.00 | 95 | 1009.4 |
| 20260901092003 | 82 | 218 | 0.0 | 0.0 | 0.00 | 0.00 | 0.00 | 95 | 1009.4 |
| 20260901091458 | 82 | 224 | 0.0 | 1.0 | 0.00 | 0.00 | 0.00 | 95 | 1009.6 |
| 20260901090953 | 82 | 218 | 0.0 | 0.0 | 0.00 | 0.00 | 0.00 | 95 | 1009.5 |
| 20260901090452 | 82 | 215 | 0.0 | 0.0 | 0.00 | 0.00 | 0.00 | 95 | 1009.3 |
| 20260901085948 | 82 | 202 | 0.0 | 0.0 | 0.00 | 0.00 | 0.00 | 95 | 1009.5 |
| 20260901085444 | 82 | 219 | 0.0 | 0.0 | 0.00 | 0.00 | 0.00 | 95 | 1009.6 |
| 20260901084940 | 82 | 222 | 0.0 | 0.0 | 0.00 | 0.00 | 0.00 | 94 | 1009.7 |
| 20260901084436 | 82 | 221 | 0.0 | 0.0 | 0.00 | 0.00 | 0.00 | 94 | 1009.4 |
| 20260901083931 | 82 | 215 | 0.0 | 0.0 | 0.00 | 0.00 | 0.00 | 94 | 1009.8 |
| 20260901083431 | 82 | 218 | 0.0 | 0.0 | 0.00 | 0.00 | 0.00 | 94 | 1009.5 |
| 20260901082929 | 82 | 215 | 0.0 | 0.0 | 0.00 | 0.00 | 0.00 | 94 | 1009.5 |
| 20260901082425 | 82 | 207 | 0.0 | 0.0 | 0.00 | 0.00 | 0.00 | 94 | 1009.5 |
| 20260901081919 | 82 | 207 | 0.0 | 0.0 | 0.00 | 0.00 | 0.00 | 94 | 1009.6 |
| 20260901081414 | 82 | 216 | 0.0 | 0.0 | 0.00 | 0.00 | 0.00 | 94 | 1009.6 |
| 20260901080909 | 82 | 217 | 0.0 | 0.0 | 0.00 | 0.00 | 0.00 | 94 | 1009.7 |
| 20260901080403 | 82 | 218 | 0.0 | 0.0 | 0.00 | 0.00 | 0.00 | 93 | 1009.8 |
| 20260901075858 | 82 | 176 | 0.0 | 1.0 | 0.00 | 0.00 | 0.00 | 93 | 1009.8 |
| 20260901075353 | 82 | 215 | 0.0 | 0.0 | 0.00 | 0.00 | 0.00 | 93 | 1009.8 |
| 20260901074847 | 82 | 213 | 0.0 | 0.0 | 0.00 | 0.00 | 0.00 | 93 | 1009.8 |
| 20260901074342 | 82 | 209 | 0.0 | 0.0 | 0.00 | 0.00 | 0.00 | 93 | 1009.8 |
| 20260901073838 | 82 | 188 | 0.0 | 0.0 | 0.00 | 0.00 | 0.00 | 93 | 1009.8 |
| 20260901073334 | 83 | 218 | 0.0 | 0.0 | 0.00 | 0.00 | 0.00 | 93 | 1009.7 |
| 20260901072829 | 83 | 215 | 0.0 | 0.0 | 0.00 | 0.00 | 0.00 | 93 | 1009.8 |
| 20260901072329 | 83 | 214 | 0.0 | 0.0 | 0.00 | 0.00 | 0.00 | 93 | 1009.8 |
| 20260901071824 | 83 | 216 | 0.0 | 0.0 | 0.00 | 0.00 | 0.00 | 92 | 1009.7 |
| 20260901071322 | 83 | 198 | 0.0 | 0.0 | 0.00 | 0.00 | 0.00 | 92 | 1009.8 |
| 20260901070821 | 83 | 211 | 0.0 | 0.0 | 0.00 | 0.00 | 0.00 | 92 | 1009.9 |
| 20260901070317 | 83 | 216 | 0.0 | 0.0 | 0.00 | 0.00 | 0.00 | 92 | 1009.8 |
| 20260901065816 | 83 | 207 | 0.0 | 0.0 | 0.00 | 0.00 | 0.00 | 92 | 1010.1 |
| 20260901065312 | 83 | 202 | 1.0 | 1.0 | 0.00 | 0.00 | 0.00 | 92 | 1009.9 |
| 20260901064808 | 83 | 206 | 1.0 | 2.0 | 0.00 | 0.00 | 0.00 | 92 | 1009.9 |
| 20260901064303 | 83 | 216 | 0.0 | 0.0 | 0.00 | 0.00 | 0.00 | 92 | 1009.9 |
| 20260901063801 | 83 | 218 | 0.0 | 0.0 | 0.00 | 0.00 | 0.00 | 92 | 1009.9 |
| 20260901063257 | 83 | 203 | 0.0 | 0.0 | 0.00 | 0.00 | 0.00 | 92 | 1010.0 |
| 20260901062753 | 83 | 215 | 0.0 | 0.0 | 0.00 | 0.00 | 0.00 | 91 | 1010.1 |
| 20260901062248 | 83 | 198 | 0.0 | 1.0 | 0.00 | 0.00 | 0.00 | 91 | 1009.9 |
| 20260901061744 | 83 | 206 | 0.0 | 0.0 | 0.00 | 0.00 | 0.00 | 91 | 1010.1 |
| 20260901061243 | 84 | 219 | 0.0 | 0.0 | 0.00 | 0.00 | 0.00 | 91 | 1010.2 |
| 20260901060739 | 84 | 211 | 0.0 | 0.0 | 0.00 | 0.00 | 0.00 | 91 | 1009.9 |
| 20260901060234 | 84 | 211 | 2.0 | 3.0 | 0.00 | 0.00 | 0.00 | 91 | 1010.0 |
| 20260901055729 | 84 | 213 | 0.0 | 1.0 | 0.00 | 0.00 | 0.00 | 91 | 1010.1 |
| 20260901055226 | 84 | 202 | 0.0 | 1.0 | 0.00 | 0.00 | 0.00 | 91 | 1010.1 |
| 20260901054723 | 84 | 130 | 2.0 | 3.0 | 0.00 | 0.00 | 0.00 | 91 | 1010.0 |
| 20260901054219 | 84 | 204 | 0.0 | 0.0 | 0.00 | 0.00 | 0.00 | 91 | 1009.8 |
| 20260901053715 | 84 | 197 | 2.0 | 2.0 | 0.00 | 0.00 | 0.00 | 91 | 1010.0 |
| 20260901053210 | 85 | 206 | 1.0 | 1.0 | 0.00 | 0.00 | 0.00 | 90 | 1009.8 |
| 20260901052705 | 85 | 191 | 1.0 | 2.0 | 0.00 | 0.00 | 0.00 | 90 | 1009.8 |
| 20260901052201 | 85 | 174 | 1.0 | 1.0 | 0.00 | 0.00 | 0.00 | 90 | 1009.8 |
| 20260901051659 | 85 | 238 | 0.0 | 1.0 | 0.00 | 0.00 | 0.00 | 89 | 1010.0 |
| 20260901051159 | 85 | 217 | 0.0 | 0.0 | 0.00 | 0.00 | 0.00 | 89 | 1010.2 |
| 20260901050654 | 85 | 197 | 0.0 | 0.0 | 0.00 | 0.00 | 0.00 | 88 | 1009.9 |
| 20260901050149 | 85 | 225 | 1.0 | 1.0 | 0.00 | 0.00 | 0.00 | 88 | 1009.8 |
| 20260901045644 | 85 | 211 | 0.0 | 0.0 | 0.00 | 0.00 | 0.00 | 88 | 1009.7 |
| 20260901045139 | 85 | 213 | 0.0 | 0.0 | 0.00 | 0.00 | 0.00 | 88 | 1009.8 |
| 20260901044634 | 85 | 210 | 1.0 | 1.0 | 0.00 | 0.00 | 0.00 | 88 | 1009.8 |
| 20260901044131 | 85 | 214 | 0.0 | 1.0 | 0.00 | 0.00 | 0.00 | 88 | 1009.9 |
| 20260901043626 | 85 | 205 | 0.0 | 0.0 | 0.00 | 0.00 | 0.00 | 88 | 1009.9 |
| 20260901043122 | 85 | 204 | 0.0 | 0.0 | 0.00 | 0.00 | 0.00 | 88 | 1009.9 |
| 20260901042620 | 85 | 212 | 0.0 | 0.0 | 0.00 | 0.00 | 0.00 | 88 | 1009.9 |
| 20260901042116 | 85 | 210 | 1.0 | 2.0 | 0.00 | 0.00 | 0.00 | 88 | 1010.0 |
| 20260901041612 | 85 | 215 | 0.0 | 0.0 | 0.00 | 0.00 | 0.00 | 88 | 1010.0 |
| 20260901041107 | 85 | 181 | 1.0 | 2.0 | 0.00 | 0.00 | 0.00 | 88 | 1010.0 |
| 20260901040606 | 85 | 204 | 0.0 | 0.0 | 0.00 | 0.00 | 0.00 | 88 | 1009.9 |
| 20260901040100 | 85 | 211 | 2.0 | 2.0 | 0.00 | 0.00 | 0.00 | 87 | 1010.2 |
| 20260901035559 | 85 | 213 | 0.0 | 0.0 | 0.00 | 0.00 | 0.00 | 87 | 1010.0 |
| 20260901035057 | 85 | 193 | 0.0 | 0.0 | 0.00 | 0.00 | 0.00 | 87 | 1010.4 |
| 20260901034551 | 85 | 219 | 0.0 | 1.0 | 0.00 | 0.00 | 0.00 | 87 | 1010.2 |
| 20260901034051 | 85 | 212 | 2.0 | 3.0 | 0.00 | 0.00 | 0.00 | 87 | 1010.2 |
| 20260901033550 | 85 | 202 | 2.0 | 3.0 | 0.00 | 0.00 | 0.00 | 87 | 1010.0 |
| 20260901033045 | 85 | 221 | 0.0 | 0.0 | 0.00 | 0.00 | 0.00 | 87 | 1009.8 |
| 20260901032544 | 85 | 126 | 1.0 | 1.0 | 0.00 | 0.00 | 0.00 | 87 | 1010.0 |
| 20260901032039 | 85 | 203 | 0.0 | 0.0 | 0.00 | 0.00 | 0.00 | 87 | 1009.8 |
| 20260901031534 | 85 | 167 | 1.0 | 1.0 | 0.00 | 0.00 | 0.00 | 87 | 1009.8 |
| 20260901031031 | 85 | 213 | 0.0 | 0.0 | 0.00 | 0.00 | 0.00 | 87 | 1009.7 |
| 20260901030530 | 85 | 186 | 0.0 | 1.0 | 0.00 | 0.00 | 0.00 | 87 | 1009.7 |
| 20260901030025 | 85 | 215 | 2.0 | 2.0 | 0.00 | 0.00 | 0.00 | 87 | 1009.4 |
| 20260901025519 | 85 | 211 | 0.0 | 1.0 | 0.00 | 0.00 | 0.00 | 87 | 1009.4 |
| 20260901025013 | 85 | 188 | 1.0 | 2.0 | 0.00 | 0.00 | 0.00 | 87 | 1009.3 |
| 20260901024508 | 85 | 215 | 3.0 | 6.0 | 0.00 | 0.00 | 0.00 | 86 | 1009.1 |
| 20260901024007 | 85 | 229 | 1.0 | 2.0 | 0.00 | 0.00 | 0.00 | 86 | 1009.1 |
| 20260901023501 | 85 | 220 | 0.0 | 0.0 | 0.00 | 0.00 | 0.00 | 86 | 1009.1 |
| 20260901022955 | 85 | 196 | 1.0 | 3.0 | 0.00 | 0.00 | 0.00 | 86 | 1008.9 |
| 20260901022451 | 85 | 217 | 0.0 | 1.0 | 0.00 | 0.00 | 0.00 | 86 | 1008.8 |
| 20260901021946 | 85 | 217 | 1.0 | 1.0 | 0.00 | 0.00 | 0.00 | 86 | 1008.8 |
| 20260901021442 | 85 | 221 | 0.0 | 0.0 | 0.00 | 0.00 | 0.00 | 86 | 1008.7 |
| 20260901020937 | 85 | 222 | 0.0 | 1.0 | 0.00 | 0.00 | 0.00 | 86 | 1008.6 |
| 20260901020432 | 85 | 214 | 3.0 | 4.0 | 0.00 | 0.00 | 0.00 | 86 | 1008.7 |
| 20260901015931 | 85 | 220 | 0.0 | 0.0 | 0.00 | 0.00 | 0.00 | 86 | 1008.4 |
| 20260901015428 | 85 | 202 | 1.0 | 1.0 | 0.00 | 0.00 | 0.00 | 87 | 1008.5 |
| 20260901014927 | 85 | 205 | 2.0 | 3.0 | 0.00 | 0.00 | 0.00 | 87 | 1008.4 |
| 20260901014424 | 85 | 210 | 0.0 | 0.0 | 0.00 | 0.00 | 0.00 | 87 | 1008.5 |
| 20260901013919 | 85 | 218 | 2.0 | 2.0 | 0.00 | 0.00 | 0.00 | 87 | 1008.2 |
| 20260901013414 | 86 | 207 | 0.0 | 0.0 | 0.00 | 0.00 | 0.00 | 87 | 1008.4 |
| 20260901012910 | 86 | 246 | 0.0 | 1.0 | 0.00 | 0.00 | 0.00 | 87 | 1008.5 |
| 20260901012404 | 86 | 201 | 0.0 | 1.0 | 0.00 | 0.00 | 0.00 | 87 | 1008.4 |
| 20260901011900 | 86 | 285 | 3.0 | 4.0 | 0.00 | 0.00 | 0.00 | 87 | 1008.4 |
| 20260901011356 | 86 | 206 | 1.0 | 3.0 | 0.00 | 0.00 | 0.00 | 87 | 1008.3 |
| 20260901010854 | 86 | 201 | 0.0 | 1.0 | 0.00 | 0.00 | 0.00 | 86 | 1008.3 |
| 20260901010349 | 86 | 218 | 1.0 | 1.0 | 0.00 | 0.00 | 0.00 | 87 | 1008.2 |
| 20260901005848 | 86 | 254 | 0.0 | 1.0 | 0.00 | 0.00 | 0.00 | 86 | 1008.4 |
| 20260901005343 | 86 | 191 | 2.0 | 4.0 | 0.00 | 0.00 | 0.00 | 86 | 1008.2 |
| 20260901004838 | 86 | 177 | 2.0 | 3.0 | 0.00 | 0.00 | 0.00 | 86 | 1008.1 |
| 20260901004332 | 86 | 224 | 3.0 | 6.0 | 0.00 | 0.00 | 0.00 | 85 | 1008.3 |
| 20260901003827 | 86 | 191 | 1.0 | 1.0 | 0.00 | 0.00 | 0.00 | 85 | 1008.2 |
| 20260901003322 | 87 | 213 | 1.0 | 1.0 | 0.00 | 0.00 | 0.00 | 83 | 1008.1 |
| 20260901002821 | 87 | 227 | 1.0 | 1.0 | 0.00 | 0.00 | 0.00 | 82 | 1008.0 |
| 20260901002315 | 87 | 228 | 1.0 | 2.0 | 0.00 | 0.00 | 0.00 | 81 | 1008.1 |
| 20260901001815 | 87 | 220 | 0.0 | 0.0 | 0.00 | 0.00 | 0.00 | 80 | 1007.9 |
| 20260901001312 | 87 | 216 | 2.0 | 3.0 | 0.00 | 0.00 | 0.00 | 79 | 1008.0 |
| 20260901000806 | 88 | 167 | 0.0 | 1.0 | 0.00 | 0.00 | 0.00 | 79 | 1008.1 |
| 20260901000303 | 88 | 252 | 0.0 | 0.0 | 0.00 | 0.00 | 0.00 | 78 | 1007.9 |
| 20260831235759 | 88 | 140 | 2.0 | 3.0 | 0.00 | 0.00 | 0.00 | 77 | 1008.1 |
| 20260831235255 | 89 | 224 | 3.0 | 6.0 | 0.00 | 0.00 | 0.00 | 76 | 1007.9 |
| 20260831234750 | 89 | 248 | 2.0 | 4.0 | 0.00 | 0.00 | 0.00 | 77 | 1007.9 |
| 20260831234249 | 89 | 216 | 2.0 | 4.0 | 0.00 | 0.00 | 0.00 | 76 | 1007.8 |
| 20260831233745 | 90 | 343 | 4.0 | 6.0 | 0.00 | 0.00 | 0.00 | 74 | 1007.8 |
| 20260831233240 | 90 | 329 | 1.0 | 2.0 | 0.00 | 0.00 | 0.00 | 73 | 1008.1 |
| 20260831232735 | 90 | 214 | 1.0 | 1.0 | 0.00 | 0.00 | 0.00 | 73 | 1007.8 |
| 20260831232231 | 90 | 209 | 4.0 | 6.0 | 0.00 | 0.00 | 0.00 | 73 | 1008.2 |
| 20260831231727 | 90 | 210 | 3.0 | 4.0 | 0.00 | 0.00 | 0.00 | 72 | 1007.9 |
| 20260831231224 | 91 | 216 | 1.0 | 2.0 | 0.00 | 0.00 | 0.00 | 71 | 1008.1 |
| 20260831230718 | 91 | 221 | 2.0 | 2.0 | 0.00 | 0.00 | 0.00 | 70 | 1008.0 |
| 20260831230213 | 91 | 213 | 2.0 | 2.0 | 0.00 | 0.00 | 0.00 | 71 | 1008.1 |
| 20260831225712 | 90 | 203 | 1.0 | 1.0 | 0.00 | 0.00 | 0.00 | 71 | 1008.1 |
| 20260831225208 | 91 | 210 | 0.0 | 1.0 | 0.00 | 0.00 | 0.00 | 71 | 1008.1 |
| 20260831224703 | 91 | 218 | 1.0 | 1.0 | 0.00 | 0.00 | 0.00 | 71 | 1008.1 |
| 20260831224158 | 91 | 206 | 2.0 | 4.0 | 0.00 | 0.00 | 0.00 | 71 | 1008.1 |
| 20260831223653 | 91 | 202 | 2.0 | 3.0 | 0.00 | 0.00 | 0.00 | 71 | 1008.0 |
| 20260831223150 | 90 | 226 | 1.0 | 1.0 | 0.00 | 0.00 | 0.00 | 71 | 1008.1 |
| 20260831222645 | 91 | 318 | 2.0 | 4.0 | 0.00 | 0.00 | 0.00 | 70 | 1008.2 |
| 20260831222141 | 91 | 49 | 2.0 | 2.0 | 0.00 | 0.00 | 0.00 | 69 | 1008.1 |
| 20260831221636 | 92 | 214 | 0.0 | 0.0 | 0.00 | 0.00 | 0.00 | 68 | 1008.0 |
| 20260831221131 | 91 | 254 | 0.0 | 1.0 | 0.00 | 0.00 | 0.00 | 69 | 1008.1 |
| 20260831220626 | 91 | 186 | 2.0 | 3.0 | 0.00 | 0.00 | 0.00 | 67 | 1008.0 |
| 20260831220121 | 92 | 49 | 4.0 | 6.0 | 0.00 | 0.00 | 0.00 | 67 | 1008.4 |
| 20260831215617 | 92 | 234 | 3.0 | 3.0 | 0.00 | 0.00 | 0.00 | 65 | 1008.1 |
| 20260831215112 | 93 | 194 | 1.0 | 2.0 | 0.00 | 0.00 | 0.00 | 64 | 1008.0 |
| 20260831214610 | 93 | 225 | 1.0 | 1.0 | 0.00 | 0.00 | 0.00 | 65 | 1008.2 |
| 20260831214106 | 94 | 304 | 3.0 | 4.0 | 0.00 | 0.00 | 0.00 | 65 | 1008.1 |
| 20260831213603 | 94 | 170 | 1.0 | 2.0 | 0.00 | 0.00 | 0.00 | 67 | 1008.1 |
| 20260831213057 | 93 | 228 | 2.0 | 3.0 | 0.00 | 0.00 | 0.00 | 67 | 1008.4 |
| 20260831212553 | 94 | 151 | 2.0 | 7.0 | 0.00 | 0.00 | 0.00 | 65 | 1008.4 |
| 20260831212049 | 94 | 60 | 3.0 | 4.0 | 0.00 | 0.00 | 0.00 | 67 | 1008.4 |
| 20260831211543 | 95 | 318 | 4.0 | 7.0 | 0.00 | 0.00 | 0.00 | 63 | 1008.4 |
| 20260831211042 | 96 | 159 | 3.0 | 4.0 | 0.00 | 0.00 | 0.00 | 58 | 1008.6 |
| 20260831210538 | 95 | 210 | 0.0 | 1.0 | 0.00 | 0.00 | 0.00 | 60 | 1008.6 |
| 20260831210034 | 95 | 341 | 2.0 | 2.0 | 0.00 | 0.00 | 0.00 | 61 | 1008.6 |
| 20260831205533 | 95 | 242 | 4.0 | 4.0 | 0.00 | 0.00 | 0.00 | 61 | 1008.7 |
| 20260831205029 | 96 | 59 | 6.0 | 7.0 | 0.00 | 0.00 | 0.00 | 63 | 1008.6 |
| 20260831204524 | 96 | 241 | 2.0 | 2.0 | 0.00 | 0.00 | 0.00 | 59 | 1008.7 |
| 20260831204022 | 96 | 220 | 1.0 | 1.0 | 0.00 | 0.00 | 0.00 | 62 | 1008.6 |
| 20260831203517 | 96 | 229 | 0.0 | 0.0 | 0.00 | 0.00 | 0.00 | 60 | 1008.9 |
| 20260831203016 | 95 | 229 | 0.0 | 1.0 | 0.00 | 0.00 | 0.00 | 63 | 1009.0 |
| 20260831202510 | 95 | 206 | 2.0 | 2.0 | 0.00 | 0.00 | 0.00 | 63 | 1009.2 |
| 20260831202009 | 95 | 256 | 2.0 | 2.0 | 0.00 | 0.00 | 0.00 | 63 | 1009.2 |
| 20260831201508 | 95 | 241 | 3.0 | 3.0 | 0.00 | 0.00 | 0.00 | 62 | 1009.1 |
| 20260831201004 | 96 | 227 | 3.0 | 4.0 | 0.00 | 0.00 | 0.00 | 62 | 1009.4 |
| 20260831200459 | 96 | 222 | 2.0 | 2.0 | 0.00 | 0.00 | 0.00 | 62 | 1009.6 |
| 20260831195954 | 97 | 302 | 3.0 | 3.0 | 0.00 | 0.00 | 0.00 | 56 | 1009.7 |
| 20260831195450 | 97 | 251 | 4.0 | 6.0 | 0.00 | 0.00 | 0.00 | 54 | 1009.7 |
| 20260831194950 | 96 | 237 | 2.0 | 3.0 | 0.00 | 0.00 | 0.00 | 55 | 1009.6 |
| 20260831194445 | 96 | 232 | 2.0 | 2.0 | 0.00 | 0.00 | 0.00 | 54 | 1009.6 |
| 20260831193945 | 96 | 221 | 3.0 | 3.0 | 0.00 | 0.00 | 0.00 | 54 | 1009.7 |
| 20260831193440 | 96 | 223 | 2.0 | 2.0 | 0.00 | 0.00 | 0.00 | 56 | 1009.6 |
| 20260831192935 | 96 | 212 | 1.0 | 2.0 | 0.00 | 0.00 | 0.00 | 52 | 1009.8 |
| 20260831192430 | 96 | 225 | 2.0 | 2.0 | 0.00 | 0.00 | 0.00 | 54 | 1009.7 |
| 20260831191925 | 97 | 177 | 1.0 | 2.0 | 0.00 | 0.00 | 0.00 | 60 | 1010.0 |
| 20260831191421 | 96 | 226 | 1.0 | 1.0 | 0.00 | 0.00 | 0.00 | 59 | 1010.1 |
| 20260831190917 | 97 | 85 | 4.0 | 6.0 | 0.00 | 0.00 | 0.00 | 58 | 1009.9 |
| 20260831190412 | 96 | 207 | 1.0 | 1.0 | 0.00 | 0.00 | 0.00 | 58 | 1010.0 |
| 20260831185911 | 96 | 201 | 0.0 | 1.0 | 0.00 | 0.00 | 0.00 | 61 | 1010.0 |
| 20260831185407 | 96 | 196 | 2.0 | 3.0 | 0.00 | 0.00 | 0.00 | 65 | 1010.2 |
| 20260831184906 | 95 | 136 | 4.0 | 4.0 | 0.00 | 0.00 | 0.00 | 65 | 1010.4 |
| 20260831184401 | 95 | 194 | 2.0 | 3.0 | 0.00 | 0.00 | 0.00 | 66 | 1010.5 |
| 20260831183856 | 95 | 268 | 2.0 | 3.0 | 0.00 | 0.00 | 0.00 | 66 | 1010.3 |
| 20260831183350 | 95 | 55 | 6.0 | 7.0 | 0.00 | 0.00 | 0.00 | 65 | 1010.3 |
| 20260831182849 | 95 | 208 | 1.0 | 1.0 | 0.00 | 0.00 | 0.00 | 66 | 1010.4 |
| 20260831182345 | 95 | 212 | 4.0 | 4.0 | 0.00 | 0.00 | 0.00 | 62 | 1010.5 |
| 20260831181840 | 96 | 209 | 2.0 | 2.0 | 0.00 | 0.00 | 0.00 | 62 | 1010.5 |
| 20260831181335 | 96 | 211 | 1.0 | 2.0 | 0.00 | 0.00 | 0.00 | 62 | 1010.6 |
| 20260831180830 | 96 | 196 | 2.0 | 2.0 | 0.00 | 0.00 | 0.00 | 60 | 1010.7 |
| 20260831180325 | 96 | 206 | 2.0 | 2.0 | 0.00 | 0.00 | 0.00 | 62 | 1010.6 |
| 20260831175824 | 95 | 233 | 3.0 | 3.0 | 0.00 | 0.00 | 0.00 | 62 | 1010.7 |
| 20260831175320 | 94 | 210 | 4.0 | 6.0 | 0.00 | 0.00 | 0.00 | 65 | 1010.7 |
| 20260831174816 | 94 | 216 | 4.0 | 7.0 | 0.00 | 0.00 | 0.00 | 65 | 1010.7 |
| 20260831174312 | 95 | 196 | 3.0 | 4.0 | 0.00 | 0.00 | 0.00 | 64 | 1010.9 |
| 20260831173811 | 96 | 260 | 2.0 | 4.0 | 0.00 | 0.00 | 0.00 | 64 | 1011.0 |
| 20260831173304 | 96 | 246 | 3.0 | 6.0 | 0.00 | 0.00 | 0.00 | 63 | 1010.9 |
| 20260831172759 | 96 | 208 | 3.0 | 4.0 | 0.00 | 0.00 | 0.00 | 61 | 1010.9 |
| 20260831172250 | 95 | 200 | 2.0 | 3.0 | 0.00 | 0.00 | 0.00 | 66 | 1010.8 |
| 20260831171749 | 95 | 175 | 2.0 | 3.0 | 0.00 | 0.00 | 0.00 | 65 | 1011.0 |
| 20260831171247 | 94 | 210 | 1.0 | 2.0 | 0.00 | 0.00 | 0.00 | 68 | 1011.1 |
| 20260831170743 | 94 | 202 | 1.0 | 1.0 | 0.00 | 0.00 | 0.00 | 67 | 1011.2 |
| 20260831170239 | 94 | 207 | 3.0 | 4.0 | 0.00 | 0.00 | 0.00 | 68 | 1010.9 |
| 20260831165735 | 95 | 201 | 4.0 | 7.0 | 0.00 | 0.00 | 0.00 | 69 | 1010.8 |
| 20260831165232 | 95 | 212 | 1.0 | 1.0 | 0.00 | 0.00 | 0.00 | 69 | 1011.0 |
| 20260831164727 | 94 | 237 | 1.0 | 1.0 | 0.00 | 0.00 | 0.00 | 70 | 1011.1 |
| 20260831164224 | 95 | 207 | 1.0 | 1.0 | 0.00 | 0.00 | 0.00 | 69 | 1011.0 |
| 20260831163718 | 94 | 198 | 5.0 | 8.0 | 0.00 | 0.00 | 0.00 | 69 | 1011.1 |
| 20260831163214 | 94 | 210 | 3.0 | 4.0 | 0.00 | 0.00 | 0.00 | 71 | 1011.0 |
| 20260831162712 | 92 | 127 | 2.0 | 2.0 | 0.00 | 0.00 | 0.00 | 73 | 1010.9 |
| 20260831162211 | 92 | 216 | 4.0 | 4.0 | 0.00 | 0.00 | 0.00 | 75 | 1010.7 |
| 20260831161701 | 91 | 226 | 2.0 | 3.0 | 0.00 | 0.00 | 0.00 | 75 | 1011.0 |
| 20260831161158 | 92 | 199 | 2.0 | 2.0 | 0.00 | 0.00 | 0.00 | 73 | 1011.0 |
| 20260831160656 | 91 | 218 | 0.0 | 0.0 | 0.00 | 0.00 | 0.00 | 75 | 1011.1 |
| 20260831160152 | 93 | 205 | 1.0 | 1.0 | 0.00 | 0.00 | 0.00 | 71 | 1010.9 |
| 20260831155651 | 93 | 228 | 0.0 | 1.0 | 0.00 | 0.00 | 0.00 | 70 | 1010.8 |
| 20260831155147 | 92 | 208 | 0.0 | 1.0 | 0.00 | 0.00 | 0.00 | 73 | 1010.9 |
| 20260831154643 | 92 | 250 | 0.0 | 0.0 | 0.00 | 0.00 | 0.00 | 72 | 1010.9 |
| 20260831154138 | 93 | 191 | 2.0 | 2.0 | 0.00 | 0.00 | 0.00 | 70 | 1010.9 |
| 20260831153637 | 92 | 204 | 0.0 | 0.0 | 0.00 | 0.00 | 0.00 | 70 | 1010.7 |
| 20260831153133 | 91 | 196 | 2.0 | 3.0 | 0.00 | 0.00 | 0.00 | 72 | 1010.8 |
| 20260831152629 | 92 | 155 | 3.0 | 3.0 | 0.00 | 0.00 | 0.00 | 70 | 1010.7 |
| 20260831152125 | 91 | 197 | 2.0 | 3.0 | 0.00 | 0.00 | 0.00 | 73 | 1010.7 |
| 20260831151624 | 91 | 175 | 4.0 | 4.0 | 0.00 | 0.00 | 0.00 | 74 | 1010.7 |
| 20260831151119 | 89 | 196 | 2.0 | 2.0 | 0.00 | 0.00 | 0.00 | 75 | 1010.8 |
| 20260831150614 | 89 | 209 | 0.0 | 1.0 | 0.00 | 0.00 | 0.00 | 76 | 1010.8 |
| 20260831150110 | 89 | 155 | 4.0 | 4.0 | 0.00 | 0.00 | 0.00 | 76 | 1010.7 |
| 20260831145603 | 89 | 203 | 1.0 | 2.0 | 0.00 | 0.00 | 0.00 | 78 | 1010.7 |
| 20260831145100 | 90 | 197 | 2.0 | 3.0 | 0.00 | 0.00 | 0.00 | 77 | 1010.7 |
| 20260831144555 | 89 | 200 | 4.0 | 6.0 | 0.00 | 0.00 | 0.00 | 78 | 1010.6 |
| 20260831144051 | 89 | 223 | 0.0 | 1.0 | 0.00 | 0.00 | 0.00 | 79 | 1010.4 |
| 20260831143545 | 88 | 220 | 2.0 | 3.0 | 0.00 | 0.00 | 0.00 | 80 | 1010.3 |
| 20260831143041 | 88 | 157 | 3.0 | 4.0 | 0.00 | 0.00 | 0.00 | 80 | 1010.4 |
| 20260831142537 | 88 | 182 | 2.0 | 2.0 | 0.00 | 0.00 | 0.00 | 81 | 1010.4 |
| 20260831142032 | 88 | 206 | 3.0 | 3.0 | 0.00 | 0.00 | 0.00 | 81 | 1010.3 |
| 20260831141531 | 89 | 192 | 3.0 | 3.0 | 0.00 | 0.00 | 0.00 | 81 | 1010.4 |
| 20260831141027 | 88 | 211 | 1.0 | 2.0 | 0.00 | 0.00 | 0.00 | 82 | 1010.4 |
| 20260831140526 | 87 | 193 | 2.0 | 2.0 | 0.00 | 0.00 | 0.00 | 84 | 1010.3 |
| 20260831140026 | 87 | 216 | 0.0 | 1.0 | 0.00 | 0.00 | 0.00 | 85 | 1010.3 |
| 20260831135524 | 87 | 214 | 0.0 | 0.0 | 0.00 | 0.00 | 0.00 | 85 | 1010.1 |
| 20260831135019 | 86 | 210 | 2.0 | 2.0 | 0.00 | 0.00 | 0.00 | 85 | 1010.0 |
| 20260831134515 | 87 | 207 | 1.0 | 2.0 | 0.00 | 0.00 | 0.00 | 85 | 1010.2 |
| 20260831134015 | 86 | 184 | 2.0 | 4.0 | 0.00 | 0.00 | 0.00 | 86 | 1010.1 |
| 20260831133510 | 86 | 199 | 0.0 | 0.0 | 0.00 | 0.00 | 0.00 | 88 | 1010.3 |
| 20260831133004 | 85 | 203 | 1.0 | 2.0 | 0.00 | 0.00 | 0.00 | 89 | 1010.1 |
| 20260831132501 | 85 | 220 | 0.0 | 0.0 | 0.00 | 0.00 | 0.00 | 90 | 1010.1 |
| 20260831131959 | 84 | 197 | 0.0 | 0.0 | 0.00 | 0.00 | 0.00 | 91 | 1010.0 |